Location: Ku?niki
(51.4449°N, 17.8974°E)
Time: 22:25:15
(UTC+00:00)

EO-79 - Pass Details

Date: 02 July 2022
Orbit: 588 x 603 km, 98.0° (Epoch: 17 August)

Event Time Altitude Azimuth Distance (km) Brightness Sun altitude
Rises 01:05:08 0° 11° (N) 2,858 ? -10.0°
Reaches altitude 10° 01:07:20 10° 7° (N) 1,953 ? -9.8°
Maximum altitude 01:11:30 57° 289° (WNW) 711 ? -9.5°
Enters shadow 01:15:17 12° 212° (SSW) 1,800 ? -9.2°
